This is the latest recevied weather packets stored in our database for station/object WAYLND-WX. If no packets are shown the sender has not sent any weather packets the latest 10 day(s).
| Time | Temp. | Humidity | Pressure | Rain* | Wind** | Luminosity | Snow |
|---|---|---|---|---|---|---|---|
| 1777860941 | 8.89° C | 75% | 979.8 hPa | 0 mm | - | - | - |
| 1777860074 | 8.89° C | 75% | 979.8 hPa | 0 mm | - | - | - |
| 1777859141 | 8.89° C | 72% | 980.5 hPa | 0 mm | - | - | - |
| 1777858260 | 9.44° C | 72% | 980.5 hPa | 0 mm | - | - | - |
| 1777857340 | 9.44° C | 72% | 980.4 hPa | 0 mm | - | - | - |
| 1777856473 | 9.44° C | 72% | 980.4 hPa | 0 mm | - | - | - |
| 1777855541 | 10° C | 68% | 981.1 hPa | 0 mm | - | - | - |
| 1777854660 | 10.56° C | 71% | 981.4 hPa | 0 mm | - | - | - |
| 1777853741 | 10.56° C | 71% | 981.4 hPa | 0 mm | - | - | - |
| 1777852879 | 11.11° C | 71% | 981.4 hPa | 0 mm | - | - | - |
| 1777851942 | 11.67° C | 64% | 982.3 hPa | 0 mm | - | - | - |
| 1777851061 | 11.67° C | 58% | 981.6 hPa | 0 mm | - | - | - |
| 1777850142 | 12.78° C | 58% | 981.6 hPa | 0 mm | - | - | - |
| 1777849266 | 12.78° C | 58% | 981.6 hPa | 0 mm | - | - | - |
| 1777848342 | 13.33° C | 57% | 982.5 hPa | 0 mm | - | - | - |
| 1777847462 | 13.33° C | 56% | 982.6 hPa | 0 mm | - | - | - |
| 1777846542 | 13.33° C | 56% | 982.5 hPa | 0 mm | - | - | - |
| 1777845681 | 13.33° C | 56% | 982.5 hPa | 0 mm | - | - | - |
| 1777844742 | 13.33° C | 54% | 983 hPa | 0 mm | - | - | - |
| 1777843860 | 13.89° C | 54% | 982.7 hPa | 0 mm | - | - | - |
| 1777842942 | 13.33° C | 54% | 982.7 hPa | 0 mm | - | - | - |
| 1777842071 | 13.33° C | 54% | 982.7 hPa | 0 mm | - | - | - |
| 1777841142 | 14.44° C | 51% | 983.8 hPa | 0 mm | - | - | - |
| 1777840261 | 14.44° C | 53% | 983.4 hPa | 0 mm | - | - | - |
| 1777839342 | 14.44° C | 53% | 983.4 hPa | 0 mm | - | - | - |
* Rain latest hour (hover to see other rain measurements)
** Current wind speed in m/s (hover to see current wind gust speed)